This is the latest recevied weather packets stored in our database for station/object WO5CID. If no packets are shown the sender has not sent any weather packets the latest 1 day(s).
| Time | Temp. | Humidity | Pressure | Rain* | Wind** | Luminosity | Snow |
|---|---|---|---|---|---|---|---|
| 1778018933 | 28.33° C | 42% | 1014.5 hPa | 0 mm | 0.45 m/s, 212° | 124 W/m² | - |
| 1778018630 | 28.33° C | 42% | 1014.5 hPa | 0 mm | 0.45 m/s, 213° | 247 W/m² | - |
| 1778018327 | 28.89° C | 42% | 1014.5 hPa | 0 mm | 0.89 m/s, 184° | 282 W/m² | - |
| 1778018026 | 28.89° C | 42% | 1014.7 hPa | 0 mm | 0.45 m/s, 271° | 300 W/m² | - |
| 1778017723 | 28.89° C | 42% | 1014.6 hPa | 0 mm | 0.45 m/s, 203° | 277 W/m² | - |
| 1778017420 | 28.89° C | 41% | 1014.3 hPa | 0 mm | 0.45 m/s, 285° | 385 W/m² | - |
| 1778017118 | 28.89° C | 40% | 1014.5 hPa | 0 mm | 0.45 m/s, 243° | 226 W/m² | - |
| 1778016816 | 28.89° C | 40% | 1014.5 hPa | 0 mm | 0.89 m/s, 33° | 356 W/m² | - |
| 1778016511 | 28.89° C | 42% | 1014.6 hPa | 0 mm | 0.45 m/s, 234° | 433 W/m² | - |
| 1778016208 | 30° C | 41% | 1014.6 hPa | 0 mm | 0.89 m/s, 273° | 166 W/m² | - |
| 1778015904 | 29.44° C | 39% | 1014.6 hPa | 0 mm | 0.89 m/s, 244° | 418 W/m² | - |
| 1778015602 | 29.44° C | 41% | 1014.8 hPa | 0 mm | 0.45 m/s, 201° | 437 W/m² | - |
| 1778015299 | 30° C | 39% | 1014.5 hPa | 0 mm | 0.89 m/s, 200° | 431 W/m² | - |
| 1778014995 | 30° C | 40% | 1014.3 hPa | 0 mm | 1.34 m/s, 212° | 460 W/m² | - |
| 1778014692 | 30° C | 39% | 1014.8 hPa | 0 mm | 1.79 m/s, 198° | 506 W/m² | - |
| 1778014391 | 30° C | 41% | 1014.5 hPa | 0 mm | 0 m/s | 478 W/m² | - |
| 1778014087 | 30° C | 41% | 1014.9 hPa | 0 mm | 0 m/s | 522 W/m² | - |
| 1778013785 | 29.44° C | 41% | 1014.8 hPa | 0 mm | 0.45 m/s, 185° | 563 W/m² | - |
| 1778013482 | 29.44° C | 40% | 1014.8 hPa | 0 mm | 1.34 m/s, 223° | 302 W/m² | - |
| 1778013179 | 29.44° C | 40% | 1014.8 hPa | 0 mm | 0.89 m/s, 188° | 596 W/m² | - |
| 1778012874 | 30° C | 40% | 1014.8 hPa | 0 mm | 0.89 m/s, 19° | 338 W/m² | - |
| 1778012571 | 30° C | 40% | 1014.8 hPa | 0 mm | 1.34 m/s, 11° | 637 W/m² | - |
| 1778012267 | 30.56° C | 40% | 1014.9 hPa | 0 mm | 0.89 m/s, 332° | 256 W/m² | - |
| 1778011965 | 30° C | 40% | 1014.9 hPa | 0 mm | 0.45 m/s, 255° | 645 W/m² | - |
| 1778011664 | 30° C | 42% | 1014.9 hPa | 0 mm | 0.89 m/s, 169° | 627 W/m² | - |
* Rain latest hour (hover to see other rain measurements)
** Current wind speed in m/s (hover to see current wind gust speed)